This is the latest recevied weather packets stored in our database for station/object K5RWS. If no packets are shown the sender has not sent any weather packets the latest 10 day(s).
| Time | Temp. | Humidity | Pressure | Rain* | Wind** | Luminosity | Snow |
|---|---|---|---|---|---|---|---|
| 1778002001 | 15° C | 38% | 1014.1 hPa | 0 mm | - | 362 W/m² | - |
| 1778001698 | 15° C | 38% | 1014.1 hPa | 0 mm | - | 474 W/m² | - |
| 1778001397 | 14.44° C | 39% | 1014 hPa | 0 mm | - | 294 W/m² | - |
| 1778001095 | 14.44° C | 40% | 1014.2 hPa | 0 mm | - | 188 W/m² | - |
| 1778000792 | 14.44° C | 41% | 1014.3 hPa | 0 mm | - | 170 W/m² | - |
| 1778000488 | 16.11° C | 41% | 1014.3 hPa | 0 mm | - | 243 W/m² | - |
| 1778000183 | 15° C | 42% | 1014.3 hPa | 0 mm | - | 369 W/m² | - |
| 1777999880 | 15° C | 42% | 1014.2 hPa | 0 mm | - | 512 W/m² | - |
| 1777999575 | 14.44° C | 42% | 1014.5 hPa | 0 mm | - | 557 W/m² | - |
| 1777999273 | 13.89° C | 42% | 1014.3 hPa | 0 mm | - | 336 W/m² | - |
| 1777998972 | 13.89° C | 43% | 1014.5 hPa | 0 mm | - | 307 W/m² | - |
| 1777998668 | 13.33° C | 44% | 1014.3 hPa | 0 mm | - | 354 W/m² | - |
| 1777998366 | 13.33° C | 44% | 1014.5 hPa | 0 mm | - | 340 W/m² | - |
| 1777998064 | 13.33° C | 45% | 1014.5 hPa | 0 mm | - | 386 W/m² | - |
| 1777997760 | 12.78° C | 45% | 1014.5 hPa | 0 mm | - | 282 W/m² | - |
| 1777997458 | 13.33° C | 45% | 1014.8 hPa | 0 mm | - | 252 W/m² | - |
| 1777997155 | 12.78° C | 46% | 1014.8 hPa | 0 mm | - | 260 W/m² | - |
| 1777996853 | 12.22° C | 49% | 1014.7 hPa | 0 mm | - | 248 W/m² | - |
| 1777996548 | 12.78° C | 48% | 1014.9 hPa | 0 mm | - | 169 W/m² | - |
| 1777996245 | 12.78° C | 46% | 1015 hPa | 0 mm | - | 157 W/m² | - |
| 1777995941 | 12.78° C | 48% | 1015 hPa | 0 mm | - | 176 W/m² | - |
| 1777995637 | 12.22° C | 49% | 1014.9 hPa | 0 mm | - | 154 W/m² | - |
| 1777995335 | 12.22° C | 50% | 1015 hPa | 0 mm | - | 183 W/m² | - |
| 1777995032 | 12.22° C | 50% | 1015.2 hPa | 0 mm | - | 184 W/m² | - |
| 1777994729 | 11.67° C | 51% | 1015.4 hPa | 0 mm | - | 168 W/m² | - |
* Rain latest hour (hover to see other rain measurements)
** Current wind speed in m/s (hover to see current wind gust speed)